[[{"header":{"parameterUnit":"m.s-1","parameterCategory":1,"la1":30.2991,"la2":30.254,"lo1":-89.0895,"lo2":-89.0444,"dy":0.0017,"dx":0.0017,"nx":28,"ny":28,"refTime":"2023-09-04T21:00:00:Z","depth":0,"parameterNumber":2,"parameterNumberName":"U-component_of_WINDS"},"data":[0,0,0,0,0,0,0,0,0,0,0,0,0,0,0,0,0,0,0,0,0,0,0,0,0,0,0,0,0,0,0,0,0,0,0,0,0,0,0,0,0,0,0,0,0,0,0,0,0,0,0,0,0,0,0,0,0,0,-0.9329,-0.9329,0,-0.9368,-0.9369,-0.9369,-0.9338,-0.9337,-0.9335,-0.9334,-0.9373,-0.9375,-0.9377,0,0,0,0,0,0,0,0,0,0,0,0,0,-0.9225,-0.9227,-0.9329,-0.9329,-0.933,-0.9368,-0.9369,-0.9369,-0.9338,-0.9337,-0.9335,-0.9333,-0.9372,-0.9375,-0.9378,0,0,0,0,0,0,0,0,0,0,0,0,0,-0.9268,-0.9228,-0.9329,-0.9319,-0.9318,-0.9368,-0.9369,-0.9369,-0.9339,-0.9337,-0.9335,-0.9333,-0.9371,-0.9375,-0.9378,-0.9439,0,0,-0.9388,-0.939,0,0,0,0,0,0,0,0,-0.9265,-0.9272,-0.932,-0.932,-0.9319,-0.9346,-0.9346,-0.9393,-0.9339,-0.9331,-0.9334,-0.9332,-0.9366,-0.9369,-0.9381,-0.9441,-0.9442,-0.9389,-0.9391,-0.9392,-0.9393,0,0,0,0,0,0,0,-0.9262,-0.927,-0.9344,-0.932,-0.932,-0.9312,-0.9316,-0.9355,-0.9359,-0.9331,-0.9329,-0.9334,-0.9365,-0.9378,-0.9382,-0.9443,-0.9389,-0.9392,-0.9394,-0.9395,-0.9554,-0.9557,0,0,0,0,0,0,-0.9261,-0.9267,-0.9343,-0.9345,-0.9287,-0.9316,-0.932,-0.9339,-0.9358,-0.9359,-0.9336,-0.9333,-0.9373,-0.9378,-0.9383,-0.9455,-0.9392,-0.9395,-0.9397,-0.9552,-0.9555,-0.9557,0,0,0,0,0,0,-0.9258,-0.9268,-0.9341,-0.9306,-0.9315,-0.9319,-0.9342,-0.9341,-0.9354,-0.9362,-0.9362,-0.9349,-0.9372,-0.9378,-0.9425,-0.9456,-0.9397,-0.94,-0.955,-0.9553,-0.9556,-0.9601,0,0,0,0,0,0,-0.9256,-0.9267,-0.929,-0.9307,-0.9317,-0.9384,-0.9344,-0.9344,-0.936,-0.9356,-0.9374,-0.9375,-0.937,-0.942,-0.9429,-0.946,-0.9403,-0.9547,-0.9551,-0.9555,-0.9597,-0.9606,-0.9613,0,0,0,0,0,-0.9252,-0.9301,-0.9292,-0.9301,-0.9346,-0.9385,-0.9391,-0.9386,-0.9363,-0.9386,-0.9391,-0.9374,-0.9452,-0.9425,-0.9435,-0.9467,-0.9545,-0.955,-0.9555,-0.9593,-0.9604,-0.9613,0,0,0,0,0,0,-0.9288,-0.9303,-0.9293,-0.9349,-0.9366,-0.938,-0.9409,-0.9397,-0.9421,-0.9416,-0.9408,-0.9412,-0.9462,-0.9469,-0.944,-0.9527,-0.9495,-0.9502,-0.9521,-0.9531,-0.9539,-0.9536,-0.9405,0,0,0,0,0,-0.9302,-0.9333,-0.9345,-0.9393,-0.9402,-0.9405,-0.9421,-0.9416,-0.9433,-0.944,-0.9449,-0.9466,-0.9494,-0.9513,-0.9539,-0.9598,-0.9601,-0.9625,-0.9633,-0.964,-0.9646,-0.9677,-0.9688,-0.9574,-0.9573,-0.9573,0,0,-0.9332,-0.9344,-0.9364,-0.9401,-0.9413,-0.9445,-0.9411,-0.9446,-0.947,-0.9446,-0.9491,-0.9498,-0.9516,-0.957,-0.9593,-0.9577,-0.9678,-0.9646,-0.9651,-0.9654,-0.9683,-0.9694,-0.9704,-0.9577,-0.9576,-0.9576,0,0,-0.9403,-0.9416,-0.9457,-0.9471,-0.9491,-0.9493,-0.9503,-0.9519,-0.9523,-0.9568,-0.9551,-0.9579,-0.9627,-0.9641,-0.9655,-0.9732,-0.9717,-0.9741,-0.9783,-0.9814,-0.9823,-0.9831,-0.9858,-0.9868,-0.9747,-0.9747,-0.9747,0,-0.9438,-0.9486,-0.948,-0.9517,-0.9534,-0.9514,-0.9556,-0.9569,-0.9597,-0.9609,-0.959,-0.9651,-0.9662,-0.9719,-0.9738,-0.9749,-0.976,-0.9739,-0.9822,-0.983,-0.9837,-0.9863,-0.9874,-0.975,-0.975,-0.9749,-0.9749,0,-0.9528,-0.9561,-0.9592,-0.9621,-0.964,-0.968,-0.968,-0.97,-0.9693,-0.9696,-0.9743,-0.9756,-0.9784,-0.9797,-0.9791,-0.9853,-0.9842,-0.9823,-0.979,-0.9851,-0.9876,-0.9886,-0.9754,-0.9753,-0.9752,-0.9751,0,0,-0.9622,-0.9647,-0.9658,-0.9671,-0.9692,-0.9718,-0.9756,-0.9785,-0.9803,-0.9823,-0.9854,-0.9897,-0.9879,-0.9895,-0.9889,-0.9916,-0.9977,-0.9894,-0.9894,-0.9909,-1.0046,-1.006,-1.0072,-0.9967,-0.9969,-0.9971,-1.0045,0,-0.9694,-0.9761,-0.9758,-0.9821,-0.9852,-0.9834,-0.9867,-0.9884,-0.9888,-0.9914,-0.9918,-0.9949,-0.9923,-0.9933,-0.9959,-0.9964,-1.0004,-0.9959,-0.9996,-0.9998,-0.9992,-1.0085,-1.01,-1.0169,-1.0054,-1.0056,-1.0057,0,-0.9787,-0.9811,-0.9878,-0.9895,-0.9907,-0.9938,-0.9964,-0.999,-1.0008,-1.0009,-1.0027,-1.0017,-1.0055,-1.0021,-1.0074,-1.0043,-1.0058,-1.0063,-1.0066,-1.0069,-1.0031,-1.009,-1.0191,-1.0202,-1.0072,-1.0071,-1.007,0,-0.9849,-0.9898,-0.9944,-0.9956,-0.9976,-0.9998,-1.0008,-1.0024,-1.0042,-1.0065,-1.0076,-1.0103,-1.0117,-1.0138,-1.0136,-1.0111,-1.0189,-1.0155,-1.0191,-1.0191,-1.0208,-1.0207,-1.0312,-1.0218,-1.0218,-1.0217,-1.0217,0,-0.993,-0.9972,-0.9973,-1.0001,-1.0047,-1.0042,-1.0087,-1.0094,-1.0109,-1.0138,-1.0124,-1.0152,-1.0147,-1.0174,-1.0173,-1.0216,-1.0223,-1.0225,-1.0224,-1.0226,-1.0226,-1.0235,-1.0231,-1.022,-1.022,-1.0219,-1.0219,0,-1.0007,-1.001,-1.0059,-1.0075,-1.008,-1.0113,-1.0126,-1.0153,-1.0156,-1.0193,-1.0202,-1.0206,-1.0238,-1.0238,-1.0273,-1.0272,-1.0326,-1.0319,-1.032,-1.0319,-1.0354,-1.0351,-1.047,-1.0485,-1.0381,-1.0382,-1.0383,0,-1.0059,-1.009,-1.011,-1.0129,-1.014,-1.0171,-1.0189,-1.0186,-1.0205,-1.0228,-1.0252,-1.0283,-1.0307,-1.0358,-1.0364,-1.0392,-1.0385,-1.0425,-1.0389,-1.0391,-1.0386,-1.0384,-1.0387,-1.0432,-1.0433,-1.0434,-1.0435,0,-1.015,-1.015,-1.0177,-1.0205,-1.0228,-1.0249,-1.0269,-1.0285,-1.0284,-1.0306,-1.0339,-1.0358,-1.0395,-1.0425,-1.0451,-1.046,-1.0448,-1.0447,-1.0456,-1.0459,-1.0458,-1.0459,-1.0339,-1.0444,-1.0443,-1.0442,-1.0442,-1.0441,-1.0216,-1.0243,-1.0262,-1.0293,-1.0307,-1.0327,-1.0353,-1.0359,-1.0387,-1.0417,-1.0413,-1.0449,-1.0467,-1.0501,-1.0512,-1.054,-1.0526,-1.054,-1.0544,-1.0547,-1.0551,-1.0454,-1.0545,-1.0545,-1.0545,-1.0544,-1.0544,0,-1.0306,-1.0317,-1.0346,-1.0375,-1.0399,-1.0386,-1.0407,-1.0428,-1.0461,-1.0478,-1.0503,-1.054,-1.057,-1.0578,-1.0607,-1.0627,-1.0622,-1.0635,-1.0633,-1.0635,-1.0562,-1.0551,-1.0639,-1.0639,-1.0638,-1.0638,-1.0638,-1.0638,-1.0356,-1.0402,-1.0404,-1.0457,-1.0468,-1.0504,-1.0517,-1.0535,-1.0549,-1.0591,-1.0616,-1.0622,-1.0636,-1.0665,-1.0691,-1.0693,-1.0704,-1.0719,-1.0719,-1.065,-1.0641,-1.0632,-1.0621,-1.0722,-1.0722,-1.0789,-1.079,-1.079]},{"header":{"parameterUnit":"m.s-1","parameterCategory":1,"la1":30.2991,"la2":30.254,"lo1":-89.0895,"lo2":-89.0444,"dy":0.0017,"dx":0.0017,"nx":28,"ny":28,"refTime":"2023-09-04T21:00:00:Z","depth":0,"parameterNumber":3,"parameterNumberName":"V-component_of_WINDS"},"data":[0,0,0,0,0,0,0,0,0,0,0,0,0,0,0,0,0,0,0,0,0,0,0,0,0,0,0,0,0,0,0,0,0,0,0,0,0,0,0,0,0,0,0,0,0,0,0,0,0,0,0,0,0,0,0,0,0,0,-1.4282,-1.4284,0,-1.4445,-1.4447,-1.4448,-1.4542,-1.4542,-1.4543,-1.4543,-1.4704,-1.4708,-1.4712,0,0,0,0,0,0,0,0,0,0,0,0,0,-1.4047,-1.4051,-1.4282,-1.4284,-1.4286,-1.4444,-1.4447,-1.4449,-1.4542,-1.4542,-1.4543,-1.4543,-1.4703,-1.4708,-1.4712,0,0,0,0,0,0,0,0,0,0,0,0,0,-1.4173,-1.4052,-1.4282,-1.4352,-1.436,-1.4444,-1.4447,-1.4449,-1.4542,-1.4542,-1.4543,-1.4543,-1.4702,-1.4707,-1.4713,-1.4739,0,0,-1.4731,-1.4734,0,0,0,0,0,0,0,0,-1.4166,-1.4182,-1.4339,-1.4347,-1.4356,-1.4474,-1.4423,-1.4546,-1.4542,-1.4472,-1.4543,-1.4544,-1.4627,-1.4639,-1.4668,-1.4746,-1.4753,-1.4732,-1.4735,-1.4738,-1.474,0,0,0,0,0,0,0,-1.4157,-1.4175,-1.4346,-1.4342,-1.4352,-1.4373,-1.4392,-1.4447,-1.4544,-1.4479,-1.4486,-1.4504,-1.4631,-1.4662,-1.4673,-1.4756,-1.4732,-1.4737,-1.4741,-1.4743,-1.4862,-1.4861,0,0,0,0,0,0,-1.4138,-1.4167,-1.4341,-1.4351,-1.4261,-1.4377,-1.4398,-1.4435,-1.4544,-1.4561,-1.4503,-1.4508,-1.4652,-1.4666,-1.4679,-1.4715,-1.4738,-1.4743,-1.4747,-1.4862,-1.4862,-1.4861,0,0,0,0,0,0,-1.4133,-1.4153,-1.4335,-1.4261,-1.4286,-1.4381,-1.4422,-1.4438,-1.4469,-1.4563,-1.458,-1.4517,-1.4653,-1.467,-1.4723,-1.4722,-1.4746,-1.4752,-1.4863,-1.4862,-1.4861,-1.4789,0,0,0,0,0,0,-1.4125,-1.415,-1.4162,-1.4261,-1.429,-1.4378,-1.4422,-1.4441,-1.448,-1.4487,-1.4581,-1.4596,-1.4655,-1.4714,-1.4729,-1.4731,-1.4756,-1.4863,-1.4862,-1.4862,-1.4792,-1.4786,-1.4781,0,0,0,0,0,-1.4117,-1.4134,-1.4162,-1.4183,-1.4307,-1.4378,-1.4394,-1.4462,-1.4479,-1.4491,-1.4551,-1.4593,-1.472,-1.4719,-1.4737,-1.474,-1.4863,-1.4863,-1.4862,-1.4794,-1.4787,-1.4781,0,0,0,0,0,0,-1.4032,-1.4149,-1.4181,-1.4231,-1.4294,-1.4393,-1.4411,-1.4452,-1.451,-1.4514,-1.4595,-1.4615,-1.466,-1.4705,-1.4702,-1.477,-1.4796,-1.4799,-1.4739,-1.4733,-1.4727,-1.4715,-1.4761,0,0,0,0,0,-1.4019,-1.4068,-1.4167,-1.4202,-1.4232,-1.4316,-1.4349,-1.4396,-1.4463,-1.449,-1.4554,-1.4616,-1.467,-1.4704,-1.4759,-1.4799,-1.482,-1.481,-1.4804,-1.4799,-1.48,-1.4824,-1.482,-1.4858,-1.4858,-1.4858,0,0,-1.3993,-1.4063,-1.4089,-1.4187,-1.4241,-1.4288,-1.4337,-1.4386,-1.4421,-1.4497,-1.4551,-1.46,-1.4675,-1.4721,-1.4745,-1.476,-1.4794,-1.4798,-1.4793,-1.4798,-1.4822,-1.4818,-1.4815,-1.4858,-1.4858,-1.4858,0,0,-1.397,-1.4028,-1.4063,-1.4116,-1.4198,-1.4254,-1.4262,-1.4355,-1.4391,-1.4447,-1.4504,-1.4547,-1.4638,-1.4689,-1.4726,-1.4721,-1.4761,-1.4736,-1.4708,-1.4729,-1.4726,-1.4724,-1.4721,-1.4719,-1.4737,-1.4737,-1.4737,0,-1.3926,-1.4002,-1.4075,-1.4121,-1.4162,-1.4233,-1.4269,-1.4316,-1.4411,-1.4436,-1.4453,-1.4568,-1.4624,-1.4683,-1.4681,-1.471,-1.472,-1.4726,-1.4721,-1.472,-1.4718,-1.4716,-1.4715,-1.4734,-1.4734,-1.4734,-1.4735,0,-1.3944,-1.3996,-1.4014,-1.4105,-1.4148,-1.4187,-1.4265,-1.4299,-1.4342,-1.4395,-1.445,-1.4519,-1.4589,-1.4606,-1.4648,-1.467,-1.4677,-1.4706,-1.4734,-1.471,-1.4709,-1.4709,-1.4728,-1.473,-1.4731,-1.4732,0,0,-1.3873,-1.4004,-1.4009,-1.4051,-1.4146,-1.4186,-1.4228,-1.4298,-1.4325,-1.4387,-1.4423,-1.4498,-1.4526,-1.4568,-1.4616,-1.4635,-1.4625,-1.4662,-1.4665,-1.4652,-1.4652,-1.463,-1.4628,-1.4652,-1.4653,-1.4653,-1.4646,0,-1.3863,-1.3944,-1.4011,-1.4067,-1.4114,-1.4182,-1.4219,-1.428,-1.433,-1.4376,-1.4431,-1.4483,-1.4515,-1.4541,-1.4563,-1.4622,-1.4626,-1.4623,-1.4685,-1.4686,-1.4664,-1.4628,-1.4604,-1.4595,-1.4646,-1.4646,-1.4646,0,-1.3863,-1.3924,-1.3984,-1.4073,-1.4096,-1.4128,-1.4196,-1.424,-1.431,-1.4345,-1.4392,-1.4442,-1.4487,-1.4511,-1.4573,-1.457,-1.4599,-1.4631,-1.4632,-1.464,-1.4665,-1.4634,-1.4593,-1.4591,-1.4647,-1.4647,-1.4647,0,-1.3803,-1.39,-1.3949,-1.3983,-1.4088,-1.4109,-1.4153,-1.4224,-1.4261,-1.432,-1.4345,-1.4407,-1.4441,-1.4488,-1.4552,-1.4564,-1.4608,-1.4637,-1.4637,-1.4635,-1.4643,-1.4641,-1.4605,-1.4662,-1.4662,-1.4662,-1.4662,0,-1.3786,-1.382,-1.3924,-1.3954,-1.3993,-1.4069,-1.4105,-1.4155,-1.4217,-1.4257,-1.4319,-1.4354,-1.4438,-1.4482,-1.4533,-1.4576,-1.4591,-1.4619,-1.4632,-1.4614,-1.461,-1.4634,-1.4636,-1.4662,-1.4662,-1.4662,-1.4662,0,-1.3726,-1.3798,-1.3855,-1.395,-1.3975,-1.3999,-1.408,-1.4111,-1.4164,-1.4213,-1.4229,-1.4312,-1.4367,-1.4437,-1.4514,-1.4548,-1.4585,-1.4606,-1.4562,-1.457,-1.4565,-1.4565,-1.4543,-1.4544,-1.4599,-1.4599,-1.4598,0,-1.371,-1.3738,-1.3836,-1.3868,-1.3911,-1.3961,-1.3999,-1.4074,-1.411,-1.4191,-1.4211,-1.4272,-1.4325,-1.441,-1.4476,-1.4535,-1.4556,-1.4545,-1.4565,-1.4545,-1.4555,-1.4552,-1.4555,-1.4539,-1.4538,-1.4537,-1.4537,0,-1.3673,-1.3707,-1.3761,-1.3826,-1.3871,-1.3926,-1.3983,-1.4005,-1.4091,-1.4129,-1.4187,-1.4228,-1.4307,-1.4366,-1.4433,-1.4477,-1.452,-1.4529,-1.4532,-1.4513,-1.4487,-1.45,-1.4547,-1.453,-1.453,-1.4531,-1.4531,-1.4531,-1.3635,-1.3662,-1.3736,-1.3793,-1.3844,-1.3896,-1.3929,-1.3987,-1.4038,-1.4109,-1.4149,-1.4206,-1.4273,-1.4369,-1.441,-1.4454,-1.447,-1.4475,-1.4476,-1.4476,-1.4469,-1.448,-1.4467,-1.4467,-1.4467,-1.4468,-1.4468,0,-1.3601,-1.3651,-1.3703,-1.3782,-1.3826,-1.3865,-1.393,-1.3964,-1.4014,-1.4074,-1.4125,-1.419,-1.4247,-1.4318,-1.4379,-1.44,-1.4421,-1.4414,-1.4412,-1.4421,-1.4452,-1.4443,-1.4395,-1.4395,-1.4395,-1.4395,-1.4395,-1.4395,-1.3588,-1.3637,-1.3679,-1.3752,-1.3802,-1.386,-1.3893,-1.3941,-1.3989,-1.4061,-1.4109,-1.4155,-1.4218,-1.4284,-1.4338,-1.4357,-1.4376,-1.4361,-1.4386,-1.4413,-1.442,-1.4426,-1.4418,-1.4365,-1.4365,-1.4352,-1.4352,-1.4352]}]]